CDT,Max TemperatureF,Mean TemperatureF,Min TemperatureF,Max Dew PointF,MeanDew PointF,Min DewpointF,Max Humidity, Mean Humidity, Min Humidity, Max Sea Level PressureIn, Mean Sea Level PressureIn, Min Sea Level PressureIn, Max VisibilityMiles, Mean VisibilityMiles, Min VisibilityMiles, Max Wind SpeedMPH, Mean Wind SpeedMPH, Max Gust SpeedMPH,PrecipitationIn, CloudCover, Events, WindDirDegrees
2012-9-1,87,74,62,57,52,46,68,49,24,30.11,30.06,30.00,10,10,10,15,8,21,0.00,0,,92
2012-9-2,91,74,57,64,60,52,88,59,36,30.01,29.92,29.81,10,10,10,16,7,22,0.00,0,,158
2012-9-3,89,78,66,66,61,50,94,58,26,29.93,29.89,29.85,10,10,10,8,5,,0.00,0,Thunderstorm,91
2012-9-4,91,78,64,66,54,37,88,52,15,29.95,29.82,29.74,10,10,10,15,6,28,0.05,0,Rain-Thunderstorm,203
2012-9-5,80,68,55,61,51,37,94,58,23,29.94,29.86,29.75,10,10,7,18,6,24,0.07,0,Rain-Thunderstorm,328
2012-9-6,82,66,51,54,48,39,88,56,23,29.99,29.92,29.86,10,10,10,12,4,,0.00,1,Rain-Thunderstorm,167
2012-9-7,71,62,51,55,49,37,82,60,31,30.07,29.98,29.86,10,10,10,21,10,30,0.00,2,,352
2012-9-8,82,63,44,46,42,34,93,55,19,30.07,29.99,29.84,10,10,10,29,10,37,0.00,0,,294
2012-9-9,75,62,48,52,47,41,93,60,31,30.22,30.14,30.08,10,10,10,9,5,,0.00,0,,304
2012-9-10,84,68,51,50,46,41,82,49,22,30.09,29.94,29.80,10,10,10,25,12,32,0.00,0,,179
2012-9-11,96,80,64,54,49,41,68,39,15,29.87,29.76,29.68,10,10,10,26,14,38,0.00,0,,197
2012-9-12,71,63,55,54,47,34,94,66,32,30.26,30.15,29.89,10,10,7,15,7,22,0.00,3,Rain,301
2012-9-13,77,62,46,52,39,19,94,55,12,30.36,30.29,30.24,10,9,2,10,3,16,0.00,1,,250
2012-9-14,78,63,48,48,40,30,82,48,17,30.32,30.27,30.21,10,10,10,14,4,17,0.00,0,,106
2012-9-15,86,67,48,46,38,28,87,41,12,30.21,30.08,29.97,10,10,10,23,10,29,0.00,0,,199
2012-9-16,82,70,57,57,48,43,88,51,25,29.97,29.92,29.87,10,10,10,14,9,18,0.00,0,Thunderstorm,250
2012-9-17,64,55,46,48,42,34,94,65,34,30.04,29.99,29.94,10,10,4,20,9,29,0.00,4,Rain-Thunderstorm,331
2012-9-18,60,48,35,39,34,27,93,61,27,30.07,30.01,29.86,10,10,10,10,7,10,0.00,2,,277
2012-9-19,75,62,48,46,37,25,67,44,18,29.89,29.77,29.67,10,10,7,29,12,39,0.00,0,,259
2012-9-20,66,55,44,37,32,25,71,43,21,29.97,29.92,29.88,10,10,7,20,9,25,0.00,1,,281
2012-9-21,66,57,48,46,39,28,82,53,28,29.93,29.86,29.82,10,10,10,20,6,30,0.00,3,Rain,322
2012-9-22,60,50,37,37,28,18,71,50,21,30.27,30.16,29.95,10,10,10,22,14,34,0.00,2,,320
2012-9-23,62,45,28,32,25,19,86,50,19,30.34,30.27,30.17,10,10,7,13,6,18,0.00,0,,289
2012-9-24,80,58,37,37,30,27,65,38,15,30.16,29.92,29.77,10,10,10,24,9,33,0.00,0,,230
2012-9-25,71,58,44,43,34,25,76,47,17,29.97,29.88,29.79,10,10,10,12,4,16,0.00,0,,345
2012-9-26,66,50,33,39,32,27,87,51,23,30.20,30.10,29.95,10,10,10,13,6,16,0.00,0,,356
2012-9-27,69,52,35,37,33,28,87,50,21,30.26,30.21,30.16,10,10,2,6,1,,0.00,0,,75
2012-9-28,78,58,39,41,34,21,87,46,12,30.22,30.16,30.11,10,9,0,7,1,,0.00,0,,202
2012-9-29,82,64,46,39,33,25,66,37,12,30.15,30.09,30.01,10,10,2,8,3,,0.00,0,,269
2012-9-30,80,63,46,45,38,32,82,43,17,30.03,29.96,29.89,10,10,7,7,1,,0.00,0,,152